This demonstration page uses our WeatherBlox Daily Observations layout. Learn more.

Left ArrowRight Arrow

39.51506, -84.39828

Hourly Observations for August 4, 2018

Temp ( °F °C ) Dew Point ( °F °C ) Humidity (%) Winds ( mph kmh ) Pressure ( in mb ) Visibility ( mi km ) Precip ( " mm )
12:15 am 00:15 Partly Cloudy 70 21.1 68 20 93 93 Calm 30.06 1018 10 16 0.00 0.00
12:35 am 00:35 Partly Cloudy 70 20.9 68 19.9 94 94 Calm 30.06 1018 10 16 0.00 0.00
12:55 am 00:55 Partly Cloudy 69 20.4 67 19.6 95 95 NW 3 6 30.09 1019 10 16 0.00 0.00
1:15 am 01:15 Mostly Cloudy 68 20.1 67 19.6 97 97 Calm 30.09 1019 7 11 0.00 0.00
1:35 am 01:35 Mostly Cloudy 69 20.8 68 19.9 95 95 Calm 30.09 1019 10 16 0.00 0.00
1:55 am 01:55 Clear 70 21 68 20.1 95 95 Calm 30.09 1019 10 16 0.00 0.00
2:15 am 02:15 Clear 69 20.7 68 19.9 95 95 Calm 30.06 1018 10 16 0.00 0.00
2:35 am 02:35 Mostly Cloudy 69 20.5 67 19.7 95 95 Calm 30.06 1018 10 16 0.00 0.00
2:55 am 02:55 Cloudy 69 20.6 68 20 96 96 Calm 30.06 1018 10 16 0.00 0.00
3:15 am 03:15 Mostly Cloudy 69 20.8 68 20.2 96 96 Calm 30.06 1018 7 11 0.00 0.00
3:35 am 03:35 Clear 69 20.7 68 20.2 97 97 Calm 30.06 1018 7 11 0.00 0.00
3:55 am 03:55 Mostly Cloudy with Mist and Fog 69 20.4 68 20 98 98 Calm 30.06 1018 7 11 0.00 0.00
4:15 am 04:15 Clear 69 20.6 68 20 96 96 SW 3 6 30.06 1018 7 11 0.00 0.00
4:35 am 04:35 Clear 69 20.7 68 20.2 97 97 WSW 3 6 30.06 1018 7 11 0.00 0.00
4:55 am 04:55 Clear 70 21 69 20.3 96 96 Calm 30.06 1018 7 11 0.00 0.00
5:15 am 05:15 Clear with Mist and Fog 69 20.6 68 19.8 95 95 Calm 30.06 1018 7 11 0.00 0.00
5:35 am 05:35 Clear with Mist and Fog 69 20.4 68 20.1 98 98 S 3 6 30.06 1018 4 6 0.00 0.00
5:55 am 05:55 Clear 69 20.7 68 19.8 95 95 SW 3 6 30.09 1019 10 16 0.00 0.00
6:15 am 06:15 Clear with Mist and Fog 68 19.8 67 19.3 97 97 Calm 30.09 1019 5 8 0.00 0.00
6:35 am 06:35 Mostly Cloudy with Mist and Fog 67 19.3 66 19 98 98 Calm 30.09 1019 2 3 0.00 0.00
6:55 am 06:55 Mostly Cloudy with Mist and Fog 67 19.6 67 19.4 99 99 Calm 30.09 1019 2 3 0.00 0.00
7:15 am 07:15 Mostly Cloudy with Mist and Fog 67 19.6 67 19.4 99 99 Calm 30.12 1020 2 2 0.00 0.00
7:35 am 07:35 Sunny with Mist and Fog 68 20.1 68 19.9 99 99 Calm 30.12 1020 4 6 0.00 0.00
7:55 am 07:55 Sunny with Mist and Fog 70 21.3 70 20.9 98 98 Calm 30.12 1020 5 8 0.00 0.00
8:15 am 08:15 Partly Cloudy 73 22.7 70 21.3 92 92 SW 3 6 30.12 1020 7 11 0.00 0.00
8:35 am 08:35 Partly Cloudy 74 23.4 70 21.1 87 87 SW 6 9 30.12 1020 10 16 0.00 0.00
8:55 am 08:55 Sunny 75 23.8 70 21 84 84 SW 6 9 30.12 1020 10 16 0.00 0.00
9:15 am 09:15 Sunny 76 24.6 70 21.2 81 81 S 6 9 30.15 1021 10 16 0.00 0.00
9:35 am 09:35 Sunny 77 25.1 70 21 78 78 SW 7 11 30.15 1021 10 16 0.00 0.00
9:55 am 09:55 Sunny 79 25.9 71 21.4 76 76 SSW 6 9 30.15 1021 10 16 0.00 0.00
10:15 am 10:15 Sunny 79 26.1 71 21.4 75 75 SW 7 11 30.15 1021 10 16 0.00 0.00
10:35 am 10:35 Sunny 80 26.6 71 21.6 74 74 SSW 5 7 30.15 1021 10 16 0.00 0.00
10:55 am 10:55 Sunny 81 27.4 72 22.1 73 73 W 5 7 30.15 1021 10 16 0.00 0.00
11:15 am 11:15 Sunny 82 28 73 22.7 73 73 WSW 7 11 30.15 1021 7 11 0.00 0.00
11:35 am 11:35 Sunny 83 28.6 73 22.5 70 70 SSW 6 9 30.15 1021 10 16 0.00 0.00
11:55 am 11:55 Partly Cloudy 84 29.1 73 23 70 70 S 3 6 30.15 1021 10 16 0.00 0.00
12:15 pm 12:15 Mostly Cloudy 84 28.8 73 22.6 69 69 WSW 6 9 30.15 1021 10 16 0.00 0.00
12:35 pm 12:35 Mostly Cloudy 85 29.5 72 22.4 66 66 NW 5 7 30.15 1021 10 16 0.00 0.00
12:55 pm 12:55 Sunny 86 30.2 72 22.2 62 62 W 3 6 30.12 1020 10 16 0.00 0.00
1:15 pm 13:15 Mostly Cloudy 86 29.8 73 22.8 66 66 SW 6 9 30.09 1019 10 16 0.00 0.00
1:35 pm 13:35 Mostly Cloudy 85 29.7 72 22.1 64 64 SW 8 13 30.09 1019 10 16 0.00 0.00
1:55 pm 13:55 Mostly Cloudy 88 31 71 21.8 58 58 WSW 8 13 30.09 1019 10 16 0.00 0.00
2:15 pm 14:15 Sunny 89 31.6 70 21 53 53 W 6 9 30.09 1019 10 16 0.00 0.00
2:35 pm 14:35 Partly Cloudy 88 31.1 69 20.6 54 54 W 8 13 30.09 1019 10 16 0.00 0.00
2:55 pm 14:55 Partly Cloudy 90 32.1 68 20 49 49 WSW 13 20 30.09 1019 10 16 0.00 0.00
3:15 pm 15:15 Sunny 90 32.4 68 19.9 48 48 WSW 9 15 30.06 1018 10 16 0.00 0.00
3:35 pm 15:35 Partly Cloudy 91 32.5 69 20.8 50 50 WSW 10 17 30.09 1019 10 16 0.00 0.00
3:55 pm 15:55 Sunny 89 31.7 68 20 50 50 WSW 8 13 30.06 1018 10 16 0.00 0.00
4:15 pm 16:15 Sunny 91 32.8 68 20 47 47 W 7 11 30.06 1018 10 16 0.00 0.00
4:35 pm 16:35 Sunny 88 31.3 68 20.1 51 51 WSW 7 11 30.06 1018 10 16 0.00 0.00
4:55 pm 16:55 Partly Cloudy 90 32.1 68 20.2 49 49 W 5 7 30.06 1018 10 16 0.00 0.00
5:15 pm 17:15 Sunny 87 30.5 69 20.8 56 56 W 6 9 30.06 1018 10 16 0.00 0.00
5:35 pm 17:35 Sunny 84 29.1 68 19.8 57 57 SSW 12 19 30.06 1018 10 16 0.00 0.00
5:55 pm 17:55 Sunny 84 28.7 67 19.7 58 58 SSW 8 13 30.09 1019 10 16 0.00 0.00
6:15 pm 18:15 Mostly Cloudy 87 30.3 67 19.3 52 52 SW 9 15 30.06 1018 10 16 0.00 0.00
6:35 pm 18:35 Mostly Cloudy 87 30.5 68 20 53 53 S 14 22 30.06 1018 10 16 0.00 0.00
6:55 pm 18:55 Partly Cloudy 84 29.1 69 20.3 59 59 SSW 9 15 30.06 1018 10 16 0.00 0.00
7:15 pm 19:15 Sunny 83 28.3 69 20.5 63 63 SW 9 15 30.09 1019 10 16 0.00 0.00
7:35 pm 19:35 Sunny 83 28.3 69 20.5 63 63 SW 6 9 30.09 1019 10 16 0.00 0.00
7:55 pm 19:55 Sunny 82 27.8 68 20.2 63 63 S 7 11 30.09 1019 10 16 0.00 0.00
8:15 pm 20:15 Sunny 80 26.5 69 20.6 70 70 SW 6 9 30.09 1019 10 16 0.00 0.00
8:35 pm 20:35 Sunny 79 26.1 69 20.5 71 71 Calm 30.12 1020 10 16 0.00 0.00
8:55 pm 20:55 Clear 78 25.6 68 20 71 71 S 3 6 30.12 1020 10 16 0.00 0.00
9:15 pm 21:15 Clear 76 24.7 69 20.3 77 77 Calm 30.12 1020 10 16 0.00 0.00
9:35 pm 21:35 Clear 74 23.1 70 21 88 88 Calm 30.12 1020 10 16 0.00 0.00
9:55 pm 21:55 Clear 73 22.8 69 20.8 89 89 Calm 30.12 1020 10 16 0.00 0.00
10:15 pm 22:15 Clear 72 22.4 69 20.7 90 90 Calm 30.12 1020 10 16 0.00 0.00
10:35 pm 22:35 Clear 72 22.4 69 20.6 90 90 Calm 30.12 1020 10 16 0.00 0.00
10:55 pm 22:55 Clear 72 22.2 69 20.8 92 92 Calm 30.12 1020 10 16 0.00 0.00
11:15 pm 23:15 Clear 71 21.8 69 20.5 92 92 Calm 30.15 1021 10 16 0.00 0.00
11:35 pm 23:35 Clear 71 21.7 69 20.6 94 94 Calm 30.15 1021 10 16 0.00 0.00
11:55 pm 23:55 Clear 70 21.3 69 20.3 94 94 Calm 30.15 1021 10 16 0.00 0.00

Powered by AerisWeather